Погода в Сагарчине

Россия / Оренбургская область     50°54′11″N   55°54′29″E
темп.,
°C
ветер,
м/с
пор.,
м/с
влажн.,
%
обл.,
%
осадки,
мм/ч
давл.,
гПа
погр.,
м
11 мая, вт
вт1123:00+16в5125140 0.0 1020212
02:00+14вюв612715 0.0 1021281
05:00+12в5117593 0.0 1022235
08:00+14вюв696887 0.0 1024444
11:00+19вюв6848100 0.0 10251298
14:00+22вюв6637100 0.0 10251967
17:00+22в563695 0.0 10252157
20:00+19всв5950100 0.0 1025212
12 мая, ср
ср1223:00+16в5114789 0.0 1025184
02:00+14в41047100 0.0 1026158
05:00+13вюв4115582 0.0 1027221
08:00+15вюв6104939 0.0 1028340
11:00+20юв6736100 0.0 10281231
14:00+22юв6730100 0.0 10271595
17:00+21вюв4735100 0.0 10271265
20:00+19в344771 0.0 102762
13 мая, чт
чт1323:00+16вюв484783 0.0 1027103
02:00+14вюв464861 0.0 102783
05:00+13вюв4649100 0.0 102784
08:00+16вюв48475 0.0 1028231
11:00+22юв56345 0.0 10281169
14:00+25юв45285 0.0 10271882
17:00+26юв45260 0.0 10261979
20:00+22вюв33370 0.0 102625
14 мая, пт
пт1423:00+19в33360 0.0 102717
02:00+17вюв33420 0.0 102723
05:00+16вюв33420 0.0 102717
08:00+19юв24410 0.0 1028133
11:00+25юв33290 0.0 1028903
14:00+27ююв33220 0.0 10272152
17:00+27юв22210 0.0 10262319
20:00+24всв22310 0.0 102513
15 мая, сб
сб1523:00+20всв44380 0.0 102542
02:00+19в33400 0.0 102526
05:00+17в33430 0.0 102523
08:00+21вюв46460 0.0 1025187
11:00+27юв44330 0.0 1025911
14:00+29ююв33263 0.0 10232838
17:00+29юв23245 0.0 10222975
20:00+26всв333667 0.0 102126